Time,TemperatureF,DewpointF,PressureIn,WindDirection,WindDirectionDegrees,WindSpeedMPH,WindSpeedGustMPH,Humidity,HourlyPrecipIn,Conditions,Clouds,dailyrainin,SoftwareType,DateUTC
2013-07-24 00:01:00,67.9,63.8,29.70,NW,315,0.4,0.4,87,0.00,,,0.00,WUHU216HW,2013-07-24 04:01:00,
2013-07-24 00:06:00,67.9,64.2,29.70,WNW,293,0.0,1.1,88,0.00,,,0.00,WUHU216HW,2013-07-24 04:06:00,
2013-07-24 00:11:00,67.9,63.8,29.70,WNW,293,0.0,1.1,87,0.00,,,0.00,WUHU216HW,2013-07-24 04:11:00,
2013-07-24 00:16:00,67.7,63.6,29.70,SSW,203,0.0,0.9,87,0.00,,,0.00,WUHU216HW,2013-07-24 04:16:00,
2013-07-24 00:21:00,67.7,63.6,29.70,SSW,203,0.0,0.7,87,0.00,,,0.00,WUHU216HW,2013-07-24 04:21:00,
2013-07-24 00:26:00,67.7,63.6,29.70,SSW,203,0.0,0.7,87,0.00,,,0.00,WUHU216HW,2013-07-24 04:26:00,
2013-07-24 00:31:00,67.5,63.8,29.70,WNW,293,0.4,1.1,88,0.00,,,0.00,WUHU216HW,2013-07-24 04:31:00,
2013-07-24 00:36:00,67.3,63.6,29.70,NW,315,0.0,1.6,88,0.00,,,0.00,WUHU216HW,2013-07-24 04:36:00,
2013-07-24 00:41:00,67.3,63.6,29.69,West,270,0.0,1.6,88,0.00,,,0.00,WUHU216HW,2013-07-24 04:41:00,
2013-07-24 00:46:00,67.1,63.5,29.69,West,270,0.0,0.4,88,0.00,,,0.00,WUHU216HW,2013-07-24 04:46:00,
2013-07-24 00:51:00,67.1,63.5,29.70,West,270,0.0,0.7,88,0.00,,,0.00,WUHU216HW,2013-07-24 04:51:00,
2013-07-24 00:56:00,67.0,63.5,29.70,West,270,0.0,0.7,89,0.00,,,0.00,WUHU216HW,2013-07-24 04:56:00,
2013-07-24 01:01:00,67.0,63.5,29.70,NW,315,0.4,2.5,89,0.00,,,0.00,WUHU216HW,2013-07-24 05:01:00,
2013-07-24 01:06:00,66.8,63.4,29.70,SSE,158,0.0,2.5,89,0.00,,,0.00,WUHU216HW,2013-07-24 05:06:00,
2013-07-24 01:11:00,66.6,63.2,29.69,NNW,338,0.4,1.8,89,0.00,,,0.00,WUHU216HW,2013-07-24 05:11:00,
2013-07-24 01:16:00,66.6,63.2,29.70,SSE,158,0.4,1.1,89,0.00,,,0.00,WUHU216HW,2013-07-24 05:16:00,
2013-07-24 01:21:00,66.6,63.5,29.70,NNW,338,0.0,2.2,90,0.00,,,0.00,WUHU216HW,2013-07-24 05:21:00,
2013-07-24 01:26:00,66.4,63.4,29.69,NNE,23,0.0,2.2,90,0.00,,,0.00,WUHU216HW,2013-07-24 05:26:00,
2013-07-24 01:31:00,66.4,63.4,29.69,WNW,293,0.2,1.1,90,0.00,,,0.00,WUHU216HW,2013-07-24 05:31:00,
2013-07-24 01:36:00,66.4,63.4,29.69,East,90,1.1,1.1,90,0.00,,,0.00,WUHU216HW,2013-07-24 05:36:00,
2013-07-24 01:41:00,66.4,63.4,29.69,NNW,338,1.1,1.6,90,0.00,,,0.00,WUHU216HW,2013-07-24 05:41:00,
2013-07-24 01:46:00,66.2,63.5,29.69,WSW,248,0.0,1.6,91,0.00,,,0.00,WUHU216HW,2013-07-24 05:46:00,
2013-07-24 01:51:00,66.2,63.5,29.69,SW,225,0.7,1.1,91,0.00,,,0.00,WUHU216HW,2013-07-24 05:51:00,
2013-07-24 01:56:00,66.2,63.5,29.69,NW,315,1.3,1.3,91,0.00,,,0.00,WUHU216HW,2013-07-24 05:56:00,
2013-07-24 02:01:00,66.4,63.6,29.69,SE,135,0.2,2.0,91,0.00,,,0.00,WUHU216HW,2013-07-24 06:01:00,
2013-07-24 02:06:00,66.4,63.6,29.68,SSE,158,0.0,2.0,91,0.00,,,0.00,WUHU216HW,2013-07-24 06:06:00,
2013-07-24 02:11:00,66.4,63.6,29.68,SSE,158,0.0,0.2,91,0.00,,,0.00,WUHU216HW,2013-07-24 06:11:00,
2013-07-24 02:16:00,66.6,63.8,29.68,NNW,338,3.1,3.1,91,0.00,,,0.00,WUHU216HW,2013-07-24 06:16:00,
2013-07-24 02:21:00,66.6,63.8,29.68,NE,45,0.0,3.1,91,0.00,,,0.00,WUHU216HW,2013-07-24 06:21:00,
2013-07-24 02:26:00,66.4,63.6,29.68,NW,315,0.4,3.1,91,0.00,,,0.00,WUHU216HW,2013-07-24 06:26:00,
2013-07-24 02:31:00,66.2,63.5,29.67,North,0,0.4,2.9,91,0.00,,,0.00,WUHU216HW,2013-07-24 06:31:00,
2013-07-24 02:36:00,66.2,63.5,29.67,WSW,248,0.0,1.8,91,0.00,,,0.00,WUHU216HW,2013-07-24 06:36:00,
2013-07-24 02:41:00,66.2,63.5,29.67,NW,315,0.0,1.8,91,0.00,,,0.00,WUHU216HW,2013-07-24 06:41:00,
2013-07-24 02:46:00,66.1,63.4,29.67,East,90,0.4,1.8,91,0.00,,,0.00,WUHU216HW,2013-07-24 06:46:00,
2013-07-24 02:51:00,66.1,63.4,29.66,NE,45,0.2,1.8,91,0.00,,,0.00,WUHU216HW,2013-07-24 06:51:00,
2013-07-24 02:57:00,66.1,63.4,29.66,East,90,0.0,1.8,91,0.00,,,0.00,WUHU216HW,2013-07-24 06:57:00,
2013-07-24 03:02:00,66.2,63.5,29.66,SW,225,0.4,1.6,91,0.00,,,0.00,WUHU216HW,2013-07-24 07:02:00,
2013-07-24 03:07:00,66.2,63.5,29.66,SSW,203,0.0,1.1,91,0.00,,,0.00,WUHU216HW,2013-07-24 07:07:00,
2013-07-24 03:12:00,66.1,63.4,29.65,SSW,203,0.0,0.7,91,0.00,,,0.00,WUHU216HW,2013-07-24 07:12:00,
2013-07-24 03:17:00,66.1,63.6,29.65,South,180,0.0,0.7,92,0.00,,,0.00,WUHU216HW,2013-07-24 07:17:00,
2013-07-24 03:22:00,66.1,63.4,29.65,NW,315,0.0,0.7,91,0.00,,,0.00,WUHU216HW,2013-07-24 07:22:00,
2013-07-24 03:27:00,66.1,63.4,29.65,NW,315,0.0,0.0,91,0.00,,,0.00,WUHU216HW,2013-07-24 07:27:00,
2013-07-24 03:32:00,65.9,63.2,29.65,NNE,23,0.0,0.0,91,0.00,,,0.00,WUHU216HW,2013-07-24 07:32:00,
2013-07-24 03:37:00,65.9,63.2,29.66,NW,315,0.7,1.1,91,0.00,,,0.00,WUHU216HW,2013-07-24 07:37:00,
2013-07-24 03:42:00,65.9,63.2,29.66,NW,315,0.0,1.1,91,0.00,,,0.00,WUHU216HW,2013-07-24 07:42:00,
2013-07-24 03:47:00,65.7,63.0,29.66,NW,315,0.0,0.7,91,0.00,,,0.00,WUHU216HW,2013-07-24 07:47:00,
2013-07-24 03:52:00,65.7,63.0,29.65,NW,315,0.0,0.0,91,0.00,,,0.00,WUHU216HW,2013-07-24 07:52:00,
2013-07-24 03:57:00,65.7,63.0,29.65,NW,315,0.0,0.0,91,0.00,,,0.00,WUHU216HW,2013-07-24 07:57:00,
2013-07-24 04:02:00,65.9,63.2,29.65,NW,315,0.0,0.0,91,0.00,,,0.00,WUHU216HW,2013-07-24 08:02:00,
2013-07-24 04:07:00,65.9,63.2,29.65,NNW,338,0.0,0.7,91,0.00,,,0.00,WUHU216HW,2013-07-24 08:07:00,
2013-07-24 04:12:00,65.9,63.2,29.65,NNW,338,0.0,0.7,91,0.00,,,0.00,WUHU216HW,2013-07-24 08:12:00,
2013-07-24 04:17:00,65.9,63.2,29.65,NW,315,0.0,0.4,91,0.00,,,0.00,WUHU216HW,2013-07-24 08:17:00,
2013-07-24 04:22:00,65.9,63.2,29.65,NW,315,0.0,0.4,91,0.00,,,0.00,WUHU216HW,2013-07-24 08:22:00,
2013-07-24 04:27:00,65.9,63.2,29.65,NW,315,0.0,0.0,91,0.00,,,0.00,WUHU216HW,2013-07-24 08:27:00,
2013-07-24 04:32:00,65.9,63.2,29.65,NW,315,0.0,0.0,91,0.00,,,0.00,WUHU216HW,2013-07-24 08:32:00,
2013-07-24 04:37:00,65.9,63.5,29.65,NW,315,0.0,0.0,92,0.00,,,0.00,WUHU216HW,2013-07-24 08:37:00,
2013-07-24 04:42:00,65.9,63.2,29.65,NW,315,0.0,0.0,91,0.00,,,0.00,WUHU216HW,2013-07-24 08:42:00,
2013-07-24 04:47:00,66.1,63.4,29.65,NW,315,0.0,0.0,91,0.00,,,0.00,WUHU216HW,2013-07-24 08:47:00,
2013-07-24 04:52:00,66.1,63.4,29.65,NW,315,0.0,0.0,91,0.00,,,0.00,WUHU216HW,2013-07-24 08:52:00,
2013-07-24 04:57:00,66.1,63.6,29.65,NW,315,0.0,0.0,92,0.00,,,0.00,WUHU216HW,2013-07-24 08:57:00,
2013-07-24 05:02:00,66.1,63.6,29.65,NW,315,0.0,0.0,92,0.00,,,0.00,WUHU216HW,2013-07-24 09:02:00,
2013-07-24 05:07:00,66.1,63.6,29.65,NW,315,0.7,0.9,92,0.00,,,0.00,WUHU216HW,2013-07-24 09:07:00,
2013-07-24 05:12:00,66.1,63.6,29.65,North,0,0.0,0.9,92,0.00,,,0.00,WUHU216HW,2013-07-24 09:12:00,
2013-07-24 05:17:00,65.9,63.5,29.65,NW,315,0.0,0.9,92,0.00,,,0.00,WUHU216HW,2013-07-24 09:17:00,
2013-07-24 05:22:00,66.1,63.6,29.65,West,270,0.0,0.4,92,0.00,,,0.00,WUHU216HW,2013-07-24 09:22:00,
2013-07-24 05:27:00,66.1,63.6,29.65,West,270,0.0,0.0,92,0.00,,,0.00,WUHU216HW,2013-07-24 09:27:00,
2013-07-24 05:32:00,66.1,63.4,29.65,SSE,158,0.0,0.9,91,0.00,,,0.00,WUHU216HW,2013-07-24 09:32:00,
2013-07-24 05:37:00,66.2,63.5,29.65,NW,315,0.9,1.1,91,0.00,,,0.00,WUHU216HW,2013-07-24 09:37:00,
2013-07-24 05:42:00,66.2,63.8,29.65,NW,315,0.0,1.1,92,0.00,,,0.00,WUHU216HW,2013-07-24 09:42:00,
2013-07-24 05:47:00,66.2,63.5,29.65,West,270,0.0,0.9,91,0.00,,,0.00,WUHU216HW,2013-07-24 09:47:00,
2013-07-24 05:52:00,66.2,63.8,29.66,NNW,338,1.1,1.1,92,0.00,,,0.00,WUHU216HW,2013-07-24 09:52:00,
2013-07-24 05:57:00,66.2,63.5,29.65,NNW,338,0.0,1.8,91,0.00,,,0.00,WUHU216HW,2013-07-24 09:57:00,
2013-07-24 06:02:00,66.2,63.8,29.65,SSW,203,0.0,1.8,92,0.00,,,0.00,WUHU216HW,2013-07-24 10:02:00,
2013-07-24 06:07:00,66.2,63.5,29.65,South,180,0.9,1.8,91,0.00,,,0.00,WUHU216HW,2013-07-24 10:07:00,
2013-07-24 06:12:00,66.2,63.8,29.65,SSE,158,0.0,1.8,92,0.00,,,0.00,WUHU216HW,2013-07-24 10:12:00,
2013-07-24 06:17:00,65.9,63.2,29.65,NW,315,0.4,1.1,91,0.00,,,0.00,WUHU216HW,2013-07-24 10:17:00,
2013-07-24 06:22:00,65.9,63.2,29.66,WNW,293,0.0,0.9,91,0.00,,,0.00,WUHU216HW,2013-07-24 10:22:00,
2013-07-24 06:27:00,65.9,63.2,29.67,WNW,293,0.0,0.9,91,0.00,,,0.00,WUHU216HW,2013-07-24 10:27:00,
2013-07-24 06:32:00,65.9,63.2,29.67,West,270,0.0,0.0,91,0.00,,,0.00,WUHU216HW,2013-07-24 10:32:00,
2013-07-24 06:37:00,65.9,63.2,29.66,West,270,0.0,0.0,91,0.00,,,0.00,WUHU216HW,2013-07-24 10:37:00,
2013-07-24 06:42:00,65.9,63.2,29.67,WSW,248,0.0,0.0,91,0.00,,,0.00,WUHU216HW,2013-07-24 10:42:00,
2013-07-24 06:47:00,65.9,63.2,29.67,NW,315,0.0,1.1,91,0.00,,,0.00,WUHU216HW,2013-07-24 10:47:00,
2013-07-24 06:52:00,65.9,63.2,29.67,NW,315,1.1,1.3,91,0.00,,,0.00,WUHU216HW,2013-07-24 10:52:00,
2013-07-24 06:57:00,65.9,63.2,29.67,NW,315,0.0,1.3,91,0.00,,,0.00,WUHU216HW,2013-07-24 10:57:00,
2013-07-24 07:02:00,65.9,63.2,29.67,NW,315,0.0,1.1,91,0.00,,,0.00,WUHU216HW,2013-07-24 11:02:00,
2013-07-24 07:07:00,65.9,63.2,29.68,NW,315,0.0,0.7,91,0.00,,,0.00,WUHU216HW,2013-07-24 11:07:00,
2013-07-24 07:12:00,65.9,63.5,29.68,West,270,1.3,1.3,92,0.00,,,0.00,WUHU216HW,2013-07-24 11:12:00,
2013-07-24 07:17:00,66.1,63.6,29.68,WSW,248,0.4,1.3,92,0.00,,,0.00,WUHU216HW,2013-07-24 11:17:00,
2013-07-24 07:22:00,66.2,63.8,29.68,WSW,248,0.0,1.3,92,0.00,,,0.00,WUHU216HW,2013-07-24 11:22:00,
2013-07-24 07:27:00,66.2,63.8,29.68,WSW,248,0.0,0.4,92,0.00,,,0.00,WUHU216HW,2013-07-24 11:27:00,
2013-07-24 07:32:00,66.2,64.1,29.68,SSW,203,0.0,0.2,93,0.00,,,0.00,WUHU216HW,2013-07-24 11:32:00,
2013-07-24 07:37:00,66.4,64.3,29.68,SSW,203,0.0,0.2,93,0.00,,,0.00,WUHU216HW,2013-07-24 11:37:00,
2013-07-24 07:42:00,66.4,64.3,29.68,SW,225,0.4,1.1,93,0.00,,,0.00,WUHU216HW,2013-07-24 11:42:00,
2013-07-24 07:47:00,66.4,64.3,29.68,SW,225,0.0,1.1,93,0.00,,,0.00,WUHU216HW,2013-07-24 11:47:00,
2013-07-24 07:52:00,66.6,64.4,29.68,SSW,203,0.0,1.1,93,0.00,,,0.00,WUHU216HW,2013-07-24 11:52:00,
2013-07-24 07:57:00,67.0,64.8,29.68,South,180,0.0,1.1,93,0.00,,,0.00,WUHU216HW,2013-07-24 11:57:00,
2013-07-24 08:02:00,67.0,64.8,29.68,South,180,0.0,1.1,93,0.00,,,0.00,WUHU216HW,2013-07-24 12:02:00,
2013-07-24 08:07:00,67.0,64.5,29.69,South,180,0.0,0.4,92,0.00,,,0.00,WUHU216HW,2013-07-24 12:07:00,
2013-07-24 08:12:00,67.1,64.7,29.69,SW,225,0.0,0.7,92,0.00,,,0.00,WUHU216HW,2013-07-24 12:12:00,
2013-07-24 08:17:00,67.1,64.7,29.69,NW,315,0.4,2.0,92,0.00,,,0.00,WUHU216HW,2013-07-24 12:17:00,
2013-07-24 08:22:00,67.3,64.9,29.69,NE,45,0.0,2.0,92,0.00,,,0.00,WUHU216HW,2013-07-24 12:22:00,
2013-07-24 08:27:00,67.3,64.9,29.69,NE,45,0.0,0.9,92,0.00,,,0.00,WUHU216HW,2013-07-24 12:27:00,
2013-07-24 08:32:00,67.3,64.9,29.70,NNW,338,1.8,2.5,92,0.00,,,0.00,WUHU216HW,2013-07-24 12:32:00,
2013-07-24 08:37:00,67.3,64.9,29.70,NNW,338,0.0,2.5,92,0.00,,,0.00,WUHU216HW,2013-07-24 12:37:00,
2013-07-24 08:42:00,67.3,64.9,29.69,West,270,0.0,1.8,92,0.00,,,0.00,WUHU216HW,2013-07-24 12:42:00,
2013-07-24 08:47:00,67.5,65.1,29.70,North,0,0.0,0.0,92,0.00,,,0.00,WUHU216HW,2013-07-24 12:47:00,
2013-07-24 08:52:00,67.7,64.9,29.70,West,270,0.0,1.1,91,0.00,,,0.00,WUHU216HW,2013-07-24 12:52:00,
2013-07-24 08:57:00,68.0,65.6,29.70,SW,225,0.2,1.1,92,0.00,,,0.00,WUHU216HW,2013-07-24 12:57:00,
2013-07-24 09:02:00,68.4,65.6,29.70,NNW,338,1.6,2.7,91,0.00,,,0.00,WUHU216HW,2013-07-24 13:02:00,
2013-07-24 09:07:00,68.8,65.7,29.70,NW,315,1.6,2.7,90,0.00,,,0.00,WUHU216HW,2013-07-24 13:07:00,
2013-07-24 09:12:00,69.1,66.3,29.71,WNW,293,0.0,2.2,91,0.00,,,0.00,WUHU216HW,2013-07-24 13:12:00,
2013-07-24 09:17:00,69.3,66.5,29.71,WNW,293,0.0,2.0,91,0.00,,,0.00,WUHU216HW,2013-07-24 13:17:00,
2013-07-24 09:22:00,69.3,66.2,29.71,WNW,293,0.0,0.0,90,0.00,,,0.00,WUHU216HW,2013-07-24 13:22:00,
2013-07-24 09:27:00,69.1,66.1,29.71,WNW,293,0.0,0.0,90,0.00,,,0.00,WUHU216HW,2013-07-24 13:27:00,
2013-07-24 09:32:00,69.3,66.2,29.71,SSW,203,0.0,0.4,90,0.00,,,0.00,WUHU216HW,2013-07-24 13:32:00,
2013-07-24 09:37:00,69.5,66.4,29.71,SSW,203,0.0,0.7,90,0.00,,,0.00,WUHU216HW,2013-07-24 13:37:00,
2013-07-24 09:42:00,69.5,66.4,29.71,SSW,203,0.0,0.7,90,0.00,,,0.00,WUHU216HW,2013-07-24 13:42:00,
2013-07-24 09:47:00,69.5,66.4,29.71,SSW,203,0.0,0.0,90,0.00,,,0.00,WUHU216HW,2013-07-24 13:47:00,
2013-07-24 09:52:00,69.5,66.4,29.71,SSW,203,0.0,0.0,90,0.00,,,0.00,WUHU216HW,2013-07-24 13:52:00,
2013-07-24 09:57:00,69.5,66.4,29.71,SSE,158,0.0,1.1,90,0.00,,,0.00,WUHU216HW,2013-07-24 13:57:00,
2013-07-24 10:02:00,69.8,66.8,29.71,NNW,338,0.7,1.6,90,0.00,,,0.00,WUHU216HW,2013-07-24 14:02:00,
2013-07-24 10:07:00,70.0,66.6,29.70,NW,315,0.0,1.6,89,0.00,,,0.00,WUHU216HW,2013-07-24 14:07:00,
2013-07-24 10:12:00,70.2,65.4,29.70,NNW,338,1.1,1.6,85,0.00,,,0.00,WUHU216HW,2013-07-24 14:12:00,
2013-07-24 10:17:00,70.6,66.5,29.71,SW,225,0.0,1.6,87,0.00,,,0.00,WUHU216HW,2013-07-24 14:17:00,
2013-07-24 10:22:00,70.6,66.5,29.71,SSE,158,0.9,1.1,87,0.00,,,0.00,WUHU216HW,2013-07-24 14:22:00,
2013-07-24 10:27:00,70.7,67.0,29.71,SSE,158,0.0,1.1,88,0.00,,,0.00,WUHU216HW,2013-07-24 14:27:00,
2013-07-24 10:32:00,70.9,66.5,29.71,North,0,0.4,2.2,86,0.00,,,0.00,WUHU216HW,2013-07-24 14:32:00,
2013-07-24 10:37:00,71.1,66.7,29.71,WNW,293,0.0,2.2,86,0.00,,,0.00,WUHU216HW,2013-07-24 14:37:00,
2013-07-24 10:42:00,70.9,66.5,29.71,West,270,0.2,1.6,86,0.00,,,0.00,WUHU216HW,2013-07-24 14:42:00,
2013-07-24 10:47:00,71.1,66.7,29.72,NW,315,0.0,0.9,86,0.00,,,0.00,WUHU216HW,2013-07-24 14:47:00,
2013-07-24 10:52:00,71.1,66.7,29.72,NNW,338,0.2,0.7,86,0.00,,,0.00,WUHU216HW,2013-07-24 14:52:00,
2013-07-24 10:57:00,71.3,66.9,29.72,West,270,0.0,0.7,86,0.00,,,0.00,WUHU216HW,2013-07-24 14:57:00,
2013-07-24 11:02:00,71.5,67.1,29.72,NW,315,1.1,1.1,86,0.00,,,0.00,WUHU216HW,2013-07-24 15:02:00,
2013-07-24 11:07:00,71.6,67.2,29.72,NNW,338,0.0,1.8,86,0.00,,,0.00,WUHU216HW,2013-07-24 15:07:00,
2013-07-24 11:12:00,71.3,66.2,29.72,NNW,338,1.6,1.8,84,0.00,,,0.00,WUHU216HW,2013-07-24 15:12:00,
2013-07-24 11:17:00,71.6,65.5,29.72,WNW,293,2.0,3.8,81,0.00,,,0.00,WUHU216HW,2013-07-24 15:17:00,
2013-07-24 11:22:00,72.0,65.2,29.72,NNW,338,2.0,3.8,79,0.00,,,0.00,WUHU216HW,2013-07-24 15:22:00,
2013-07-24 11:27:00,72.2,65.7,29.72,East,90,0.2,3.4,80,0.00,,,0.00,WUHU216HW,2013-07-24 15:27:00,
2013-07-24 11:32:00,72.2,65.7,29.73,NW,315,1.1,3.4,80,0.00,,,0.00,WUHU216HW,2013-07-24 15:32:00,
2013-07-24 11:37:00,72.4,65.5,29.73,North,0,1.1,3.6,79,0.00,,,0.00,WUHU216HW,2013-07-24 15:37:00,
2013-07-24 11:42:00,72.5,66.4,29.72,NNW,338,1.8,3.6,81,0.00,,,0.00,WUHU216HW,2013-07-24 15:42:00,
2013-07-24 11:47:00,72.5,66.4,29.72,NE,45,0.0,2.2,81,0.00,,,0.00,WUHU216HW,2013-07-24 15:47:00,
2013-07-24 11:52:00,72.4,65.9,29.72,ENE,68,0.4,1.8,80,0.00,,,0.00,WUHU216HW,2013-07-24 15:52:00,
2013-07-24 11:57:00,72.4,65.9,29.72,NE,45,0.7,1.1,80,0.00,,,0.00,WUHU216HW,2013-07-24 15:57:00,
2013-07-24 12:02:00,72.4,65.9,29.72,WSW,248,0.2,1.3,80,0.00,,,0.00,WUHU216HW,2013-07-24 16:02:00,
2013-07-24 12:07:00,72.7,66.2,29.72,NW,315,1.3,1.3,80,0.00,,,0.00,WUHU216HW,2013-07-24 16:07:00,
2013-07-24 12:12:00,73.3,66.1,29.73,NW,315,2.5,2.5,78,0.00,,,0.00,WUHU216HW,2013-07-24 16:12:00,
2013-07-24 12:17:00,73.6,65.3,29.72,NW,315,1.1,4.9,75,0.00,,,0.00,WUHU216HW,2013-07-24 16:17:00,
2013-07-24 12:22:00,73.6,65.3,29.73,NNW,338,2.7,4.9,75,0.00,,,0.00,WUHU216HW,2013-07-24 16:22:00,
2013-07-24 12:27:00,73.3,64.5,29.73,NW,315,2.5,4.5,74,0.00,,,0.00,WUHU216HW,2013-07-24 16:27:00,
2013-07-24 12:32:00,73.1,64.7,29.73,NNW,338,1.8,4.5,75,0.00,,,0.00,WUHU216HW,2013-07-24 16:32:00,
2013-07-24 12:37:00,73.8,65.4,29.73,NNE,23,0.4,4.5,75,0.00,,,0.00,WUHU216HW,2013-07-24 16:37:00,
2013-07-24 12:42:00,73.6,65.6,29.72,NE,45,0.7,1.8,76,0.00,,,0.00,WUHU216HW,2013-07-24 16:42:00,
2013-07-24 12:47:00,73.6,66.0,29.72,WNW,293,1.1,1.1,77,0.00,,,0.00,WUHU216HW,2013-07-24 16:47:00,
2013-07-24 12:52:00,74.2,66.9,29.72,ENE,68,0.0,1.1,78,0.00,,,0.00,WUHU216HW,2013-07-24 16:52:00,
2013-07-24 12:57:00,74.7,67.1,29.72,North,0,1.8,1.8,77,0.00,,,0.00,WUHU216HW,2013-07-24 16:57:00,
2013-07-24 13:02:00,74.7,66.7,29.72,North,0,0.4,1.8,76,0.00,,,0.00,WUHU216HW,2013-07-24 17:02:00,
2013-07-24 13:07:00,74.3,65.9,29.72,North,0,0.4,1.8,75,0.00,,,0.00,WUHU216HW,2013-07-24 17:07:00,
2013-07-24 13:12:00,73.8,65.4,29.72,WNW,293,0.4,1.8,75,0.00,,,0.00,WUHU216HW,2013-07-24 17:12:00,
2013-07-24 13:17:00,73.8,64.6,29.72,NW,315,2.2,4.0,73,0.00,,,0.00,WUHU216HW,2013-07-24 17:17:00,
2013-07-24 13:22:00,74.9,66.1,29.72,ESE,113,0.2,4.0,74,0.00,,,0.00,WUHU216HW,2013-07-24 17:22:00,
2013-07-24 13:27:00,75.6,66.0,29.71,SSE,158,0.4,1.6,72,0.00,,,0.00,WUHU216HW,2013-07-24 17:27:00,
2013-07-24 13:32:00,76.3,66.2,29.72,WNW,293,1.3,2.5,71,0.00,,,0.00,WUHU216HW,2013-07-24 17:32:00,
2013-07-24 13:37:00,76.9,66.8,29.71,NNW,338,0.7,2.5,71,0.00,,,0.00,WUHU216HW,2013-07-24 17:37:00,
2013-07-24 13:42:00,77.4,67.0,29.71,East,90,0.7,2.5,70,0.00,,,0.00,WUHU216HW,2013-07-24 17:42:00,
2013-07-24 13:47:00,77.2,65.0,29.71,WNW,293,2.7,3.1,66,0.00,,,0.00,WUHU216HW,2013-07-24 17:47:00,
2013-07-24 13:52:00,77.2,65.4,29.71,North,0,0.0,3.6,67,0.00,,,0.00,WUHU216HW,2013-07-24 17:52:00,
2013-07-24 13:57:00,77.0,65.3,29.71,SSE,158,0.4,3.6,67,0.00,,,0.00,WUHU216HW,2013-07-24 17:57:00,
2013-07-24 14:02:00,76.7,65.3,29.71,SE,135,0.2,1.6,68,0.00,,,0.00,WUHU216HW,2013-07-24 18:02:00,
2013-07-24 14:07:00,76.1,65.3,29.71,ESE,113,0.2,1.6,69,0.00,,,0.00,WUHU216HW,2013-07-24 18:07:00,
2013-07-24 14:12:00,75.4,64.1,29.71,WNW,293,0.0,1.3,68,0.00,,,0.00,WUHU216HW,2013-07-24 18:12:00,
2013-07-24 14:17:00,74.9,64.4,29.71,ENE,68,0.0,1.1,70,0.00,,,0.00,WUHU216HW,2013-07-24 18:17:00,
2013-07-24 14:22:00,74.3,64.4,29.71,East,90,0.0,1.1,71,0.00,,,0.00,WUHU216HW,2013-07-24 18:22:00,
2013-07-24 14:27:00,74.7,65.5,29.71,SSW,203,0.4,1.3,73,0.00,,,0.00,WUHU216HW,2013-07-24 18:27:00,
2013-07-24 14:32:00,75.2,65.6,29.71,WSW,248,1.1,1.6,72,0.00,,,0.00,WUHU216HW,2013-07-24 18:32:00,
2013-07-24 14:37:00,75.8,65.7,29.71,SW,225,0.4,1.6,71,0.00,,,0.00,WUHU216HW,2013-07-24 18:37:00,
2013-07-24 14:42:00,76.1,66.1,29.71,SW,225,0.4,1.8,71,0.00,,,0.00,WUHU216HW,2013-07-24 18:42:00,
2013-07-24 14:47:00,77.0,66.2,29.71,NNE,23,0.2,2.2,69,0.00,,,0.00,WUHU216HW,2013-07-24 18:47:00,
2013-07-24 14:52:00,77.9,67.0,29.71,NW,315,2.5,2.5,69,0.00,,,0.00,WUHU216HW,2013-07-24 18:52:00,
2013-07-24 14:57:00,78.5,66.2,29.71,NE,45,0.2,2.5,66,0.00,,,0.00,WUHU216HW,2013-07-24 18:57:00,
2013-07-24 15:02:00,78.8,66.5,29.71,WNW,293,0.9,2.5,66,0.00,,,0.00,WUHU216HW,2013-07-24 19:02:00,
2013-07-24 15:07:00,78.7,66.3,29.71,ESE,113,0.4,1.6,66,0.00,,,0.00,WUHU216HW,2013-07-24 19:07:00,
2013-07-24 15:13:00,77.6,64.5,29.71,SE,135,0.0,1.6,64,0.00,,,0.00,WUHU216HW,2013-07-24 19:13:00,
2013-07-24 15:18:00,76.3,64.1,29.71,ESE,113,0.0,0.4,66,0.00,,,0.00,WUHU216HW,2013-07-24 19:18:00,
2013-07-24 15:23:00,75.6,64.3,29.71,SSE,158,0.7,1.8,68,0.00,,,0.00,WUHU216HW,2013-07-24 19:23:00,
2013-07-24 15:28:00,76.0,65.5,29.71,SW,225,0.4,1.8,70,0.00,,,0.00,WUHU216HW,2013-07-24 19:28:00,
2013-07-24 15:33:00,77.0,64.4,29.71,South,180,0.4,2.2,65,0.00,,,0.00,WUHU216HW,2013-07-24 19:33:00,
2013-07-24 15:38:00,77.6,64.9,29.72,SE,135,0.0,2.2,65,0.00,,,0.00,WUHU216HW,2013-07-24 19:38:00,
2013-07-24 15:43:00,77.8,63.3,29.72,West,270,1.6,2.9,61,0.00,,,0.00,WUHU216HW,2013-07-24 19:43:00,
2013-07-24 15:48:00,77.6,64.0,29.71,North,0,0.4,2.9,63,0.00,,,0.00,WUHU216HW,2013-07-24 19:48:00,
2013-07-24 15:53:00,76.9,63.3,29.71,North,0,1.8,2.2,63,0.00,,,0.00,WUHU216HW,2013-07-24 19:53:00,
2013-07-24 15:58:00,76.5,63.4,29.72,WNW,293,1.8,2.5,64,0.00,,,0.00,WUHU216HW,2013-07-24 19:58:00,
2013-07-24 16:03:00,76.3,64.1,29.72,NW,315,0.4,3.1,66,0.00,,,0.00,WUHU216HW,2013-07-24 20:03:00,
2013-07-24 16:08:00,76.1,63.1,29.72,NNW,338,2.0,3.1,64,0.00,,,0.00,WUHU216HW,2013-07-24 20:08:00,
2013-07-24 16:13:00,76.3,64.1,29.72,NNW,338,2.0,2.7,66,0.00,,,0.00,WUHU216HW,2013-07-24 20:13:00,
2013-07-24 16:18:00,76.5,64.7,29.72,NE,45,0.0,2.7,67,0.00,,,0.00,WUHU216HW,2013-07-24 20:18:00,
2013-07-24 16:23:00,76.9,65.1,29.71,NW,315,0.4,3.1,67,0.00,,,0.00,WUHU216HW,2013-07-24 20:23:00,
2013-07-24 16:28:00,77.4,65.2,29.71,ENE,68,0.9,3.1,66,0.00,,,0.00,WUHU216HW,2013-07-24 20:28:00,
2013-07-24 16:33:00,77.8,65.5,29.71,SSW,203,3.4,4.3,66,0.00,,,0.00,WUHU216HW,2013-07-24 20:33:00,
2013-07-24 16:38:00,78.5,65.3,29.71,WSW,248,1.1,4.7,64,0.00,,,0.00,WUHU216HW,2013-07-24 20:38:00,
2013-07-24 16:43:00,78.8,65.2,29.71,WNW,293,1.1,4.7,63,0.00,,,0.00,WUHU216HW,2013-07-24 20:43:00,
2013-07-24 16:48:00,78.7,65.4,29.71,NNW,338,1.6,3.6,64,0.00,,,0.00,WUHU216HW,2013-07-24 20:48:00,
2013-07-24 16:53:00,78.5,65.3,29.71,WNW,293,1.1,3.6,64,0.00,,,0.00,WUHU216HW,2013-07-24 20:53:00,
2013-07-24 16:58:00,78.3,64.3,29.72,NNW,338,2.7,4.0,62,0.00,,,0.00,WUHU216HW,2013-07-24 20:58:00,
2013-07-24 17:03:00,78.1,65.0,29.71,South,180,1.1,4.0,64,0.00,,,0.00,WUHU216HW,2013-07-24 21:03:00,
2013-07-24 17:08:00,78.1,65.0,29.72,North,0,1.1,2.9,64,0.00,,,0.00,WUHU216HW,2013-07-24 21:08:00,
2013-07-24 17:13:00,78.3,65.1,29.72,West,270,0.4,3.4,64,0.00,,,0.00,WUHU216HW,2013-07-24 21:13:00,
2013-07-24 17:18:00,78.1,65.3,29.72,North,0,0.4,3.4,65,0.00,,,0.00,WUHU216HW,2013-07-24 21:18:00,
2013-07-24 17:23:00,78.1,65.3,29.72,SSW,203,0.4,3.4,65,0.00,,,0.00,WUHU216HW,2013-07-24 21:23:00,
2013-07-24 17:28:00,78.1,64.5,29.72,NW,315,3.1,4.0,63,0.00,,,0.00,WUHU216HW,2013-07-24 21:28:00,
2013-07-24 17:33:00,78.3,65.1,29.72,NNE,23,0.4,4.0,64,0.00,,,0.00,WUHU216HW,2013-07-24 21:33:00,
2013-07-24 17:37:00,78.1,65.0,29.72,NW,315,1.8,3.1,64,0.00,,,0.00,WUHU216HW,2013-07-24 21:37:00,
2013-07-24 17:43:00,77.8,63.7,29.72,SE,135,0.4,4.3,62,0.00,,,0.00,WUHU216HW,2013-07-24 21:43:00,
2013-07-24 17:48:00,77.2,64.1,29.72,WSW,248,0.9,4.3,64,0.00,,,0.00,WUHU216HW,2013-07-24 21:48:00,
2013-07-24 17:53:00,77.0,63.9,29.72,West,270,1.1,1.8,64,0.00,,,0.00,WUHU216HW,2013-07-24 21:53:00,
2013-07-24 17:58:00,77.0,63.5,29.72,WSW,248,2.7,2.7,63,0.00,,,0.00,WUHU216HW,2013-07-24 21:58:00,
2013-07-24 18:03:00,77.0,63.9,29.72,SSW,203,0.2,4.0,64,0.00,,,0.00,WUHU216HW,2013-07-24 22:03:00,
2013-07-24 18:08:00,76.7,62.6,29.72,NNW,338,1.6,4.0,62,0.00,,,0.00,WUHU216HW,2013-07-24 22:08:00,
2013-07-24 18:13:00,76.5,63.8,29.72,ESE,113,0.2,3.1,65,0.00,,,0.00,WUHU216HW,2013-07-24 22:13:00,
2013-07-24 18:18:00,76.0,63.7,29.72,NNE,23,0.4,2.2,66,0.00,,,0.00,WUHU216HW,2013-07-24 22:18:00,
2013-07-24 18:23:00,75.4,63.3,29.72,NW,315,2.0,3.1,66,0.00,,,0.00,WUHU216HW,2013-07-24 22:23:00,
2013-07-24 18:28:00,75.2,63.6,29.73,NW,315,0.4,3.1,67,0.00,,,0.00,WUHU216HW,2013-07-24 22:28:00,
2013-07-24 18:33:00,74.9,63.2,29.73,NNW,338,1.1,3.4,67,0.00,,,0.00,WUHU216HW,2013-07-24 22:33:00,
2013-07-24 18:38:00,74.5,62.8,29.73,East,90,0.7,3.4,67,0.00,,,0.00,WUHU216HW,2013-07-24 22:38:00,
2013-07-24 18:43:00,74.2,63.4,29.73,North,0,0.9,2.5,69,0.00,,,0.00,WUHU216HW,2013-07-24 22:43:00,
2013-07-24 18:48:00,73.8,62.2,29.73,NNW,338,1.1,2.0,67,0.00,,,0.00,WUHU216HW,2013-07-24 22:48:00,
2013-07-24 18:53:00,73.8,62.7,29.73,NNW,338,0.4,3.1,68,0.00,,,0.00,WUHU216HW,2013-07-24 22:53:00,
2013-07-24 18:58:00,73.6,62.9,29.73,ESE,113,0.0,3.1,69,0.00,,,0.00,WUHU216HW,2013-07-24 22:58:00,
2013-07-24 19:03:00,73.1,62.4,29.73,ESE,113,0.0,1.3,69,0.00,,,0.00,WUHU216HW,2013-07-24 23:03:00,
2013-07-24 19:08:00,72.9,62.2,29.73,West,270,1.1,1.8,69,0.00,,,0.00,WUHU216HW,2013-07-24 23:08:00,
2013-07-24 19:13:00,72.9,62.2,29.73,South,180,0.7,1.8,69,0.00,,,0.00,WUHU216HW,2013-07-24 23:13:00,
2013-07-24 19:18:00,72.7,62.0,29.73,WNW,293,1.1,2.5,69,0.00,,,0.00,WUHU216HW,2013-07-24 23:18:00,
2013-07-24 19:23:00,72.4,62.1,29.73,NW,315,1.8,3.4,70,0.00,,,0.00,WUHU216HW,2013-07-24 23:23:00,
2013-07-24 19:28:00,72.2,61.5,29.73,NW,315,1.1,3.4,69,0.00,,,0.00,WUHU216HW,2013-07-24 23:28:00,
2013-07-24 19:33:00,72.0,61.7,29.74,NW,315,2.0,3.4,70,0.00,,,0.00,WUHU216HW,2013-07-24 23:33:00,
2013-07-24 19:38:00,71.8,61.6,29.74,NW,315,1.8,2.9,70,0.00,,,0.00,WUHU216HW,2013-07-24 23:38:00,
2013-07-24 19:43:00,71.6,60.9,29.74,NW,315,0.9,2.5,69,0.00,,,0.00,WUHU216HW,2013-07-24 23:43:00,
2013-07-24 19:48:00,71.1,60.8,29.74,NW,315,1.1,2.5,70,0.00,,,0.00,WUHU216HW,2013-07-24 23:48:00,
2013-07-24 19:53:00,70.9,60.7,29.74,ENE,68,0.4,2.0,70,0.00,,,0.00,WUHU216HW,2013-07-24 23:53:00,
2013-07-24 19:58:00,70.9,60.7,29.74,West,270,0.4,2.0,70,0.00,,,0.00,WUHU216HW,2013-07-24 23:58:00,
2013-07-24 20:03:00,70.6,60.7,29.75,NW,315,0.4,1.3,71,0.00,,,0.00,WUHU216HW,2013-07-25 00:03:00,
2013-07-24 20:08:00,70.4,60.5,29.75,North,0,0.2,1.3,71,0.00,,,0.00,WUHU216HW,2013-07-25 00:08:00,
2013-07-24 20:13:00,69.8,59.9,29.75,NW,315,1.8,2.5,71,0.00,,,0.00,WUHU216HW,2013-07-25 00:13:00,
2013-07-24 20:18:00,69.5,60.0,29.75,NW,315,2.2,2.5,72,0.00,,,0.00,WUHU216HW,2013-07-25 00:18:00,
2013-07-24 20:23:00,69.5,60.0,29.76,NW,315,0.0,2.9,72,0.00,,,0.00,WUHU216HW,2013-07-25 00:23:00,
2013-07-24 20:28:00,69.1,59.7,29.76,North,0,0.4,2.9,72,0.00,,,0.00,WUHU216HW,2013-07-25 00:28:00,
2013-07-24 20:33:00,68.9,59.5,29.76,ESE,113,0.7,2.5,72,0.00,,,0.00,WUHU216HW,2013-07-25 00:33:00,
2013-07-24 20:38:00,68.8,59.4,29.76,NNE,23,0.2,2.5,72,0.00,,,0.00,WUHU216HW,2013-07-25 00:38:00,
2013-07-24 20:43:00,68.6,59.2,29.77,NNW,338,0.0,1.8,72,0.00,,,0.00,WUHU216HW,2013-07-25 00:43:00,
2013-07-24 20:48:00,68.4,59.0,29.77,NNW,338,1.1,1.8,72,0.00,,,0.00,WUHU216HW,2013-07-25 00:48:00,
2013-07-24 20:53:00,68.2,59.2,29.77,NNW,338,1.3,2.0,73,0.00,,,0.00,WUHU216HW,2013-07-25 00:53:00,
2013-07-24 20:58:00,68.0,59.1,29.78,NW,315,1.1,2.2,73,0.00,,,0.00,WUHU216HW,2013-07-25 00:58:00,
2013-07-24 21:03:00,67.7,59.1,29.78,NNW,338,2.5,2.5,74,0.00,,,0.00,WUHU216HW,2013-07-25 01:03:00,
2013-07-24 21:08:00,67.5,59.0,29.78,NW,315,2.5,2.9,74,0.00,,,0.00,WUHU216HW,2013-07-25 01:08:00,
2013-07-24 21:13:00,67.3,58.8,29.77,NW,315,1.8,2.9,74,0.00,,,0.00,WUHU216HW,2013-07-25 01:13:00,
2013-07-24 21:18:00,67.3,58.8,29.78,NW,315,0.0,2.5,74,0.00,,,0.00,WUHU216HW,2013-07-25 01:18:00,
2013-07-24 21:23:00,67.3,59.1,29.78,NW,315,0.0,2.0,75,0.00,,,0.00,WUHU216HW,2013-07-25 01:23:00,
2013-07-24 21:28:00,67.1,58.6,29.78,SW,225,0.0,0.4,74,0.00,,,0.00,WUHU216HW,2013-07-25 01:28:00,
2013-07-24 21:33:00,67.1,59.0,29.78,NNE,23,0.4,2.2,75,0.00,,,0.00,WUHU216HW,2013-07-25 01:33:00,
2013-07-24 21:38:00,67.1,59.0,29.78,WNW,293,0.0,2.2,75,0.00,,,0.00,WUHU216HW,2013-07-25 01:38:00,
2013-07-24 21:43:00,67.0,58.8,29.78,WNW,293,0.0,0.4,75,0.00,,,0.00,WUHU216HW,2013-07-25 01:43:00,
2013-07-24 21:48:00,67.0,58.8,29.79,NW,315,0.4,0.9,75,0.00,,,0.00,WUHU216HW,2013-07-25 01:48:00,
2013-07-24 21:53:00,67.0,58.8,29.79,NW,315,0.0,1.1,75,0.00,,,0.00,WUHU216HW,2013-07-25 01:53:00,
2013-07-24 21:58:00,66.8,59.0,29.79,NW,315,1.1,1.1,76,0.00,,,0.00,WUHU216HW,2013-07-25 01:58:00,
2013-07-24 22:03:00,66.6,58.8,29.79,NW,315,1.6,1.8,76,0.00,,,0.00,WUHU216HW,2013-07-25 02:03:00,
2013-07-24 22:08:00,66.6,58.8,29.79,WNW,293,1.3,1.8,76,0.00,,,0.00,WUHU216HW,2013-07-25 02:08:00,
2013-07-24 22:13:00,66.4,58.6,29.79,WNW,293,0.7,2.0,76,0.00,,,0.00,WUHU216HW,2013-07-25 02:13:00,
2013-07-24 22:18:00,66.4,58.6,29.79,North,0,0.0,2.0,76,0.00,,,0.00,WUHU216HW,2013-07-25 02:18:00,
2013-07-24 22:23:00,66.4,58.6,29.79,WNW,293,0.0,0.7,76,0.00,,,0.00,WUHU216HW,2013-07-25 02:23:00,
2013-07-24 22:28:00,66.2,58.8,29.80,WSW,248,0.4,0.4,77,0.00,,,0.00,WUHU216HW,2013-07-25 02:28:00,
2013-07-24 22:33:00,66.2,58.8,29.80,WSW,248,0.0,0.4,77,0.00,,,0.00,WUHU216HW,2013-07-25 02:33:00,
2013-07-24 22:38:00,65.9,58.5,29.80,WSW,248,0.0,0.4,77,0.00,,,0.00,WUHU216HW,2013-07-25 02:38:00,
2013-07-24 22:43:00,65.7,58.3,29.80,WSW,248,0.0,0.0,77,0.00,,,0.00,WUHU216HW,2013-07-25 02:43:00,
2013-07-24 22:48:00,65.5,58.5,29.80,West,270,0.0,0.0,78,0.00,,,0.00,WUHU216HW,2013-07-25 02:48:00,
2013-07-24 22:53:00,65.2,58.5,29.81,WSW,248,0.0,0.4,79,0.00,,,0.00,WUHU216HW,2013-07-25 02:53:00,
2013-07-24 22:58:00,65.2,58.5,29.81,WSW,248,0.0,0.4,79,0.00,,,0.00,WUHU216HW,2013-07-25 02:58:00,
2013-07-24 23:03:00,64.8,58.2,29.81,WSW,248,0.0,0.0,79,0.00,,,0.00,WUHU216HW,2013-07-25 03:03:00,
2013-07-24 23:08:00,64.4,58.1,29.81,WSW,248,0.0,0.0,80,0.00,,,0.00,WUHU216HW,2013-07-25 03:08:00,
2013-07-24 23:13:00,64.1,57.8,29.81,WSW,248,0.0,0.0,80,0.00,,,0.00,WUHU216HW,2013-07-25 03:13:00,
2013-07-24 23:18:00,63.9,57.2,29.81,West,270,0.0,0.0,79,0.00,,,0.00,WUHU216HW,2013-07-25 03:18:00,
2013-07-24 23:23:00,63.7,57.1,29.81,West,270,0.0,0.0,79,0.00,,,0.00,WUHU216HW,2013-07-25 03:23:00,
2013-07-24 23:29:00,63.7,57.1,29.81,West,270,0.0,0.0,79,0.00,,,0.00,WUHU216HW,2013-07-25 03:29:00,
2013-07-24 23:34:00,63.7,57.4,29.81,West,270,0.0,0.0,80,0.00,,,0.00,WUHU216HW,2013-07-25 03:34:00,
2013-07-24 23:40:00,63.7,57.4,29.81,West,270,0.0,0.0,80,0.00,,,0.00,WUHU216HW,2013-07-25 03:40:00,
2013-07-24 23:45:00,63.5,57.2,29.81,West,270,0.0,0.0,80,0.00,,,0.00,WUHU216HW,2013-07-25 03:45:00,
2013-07-24 23:50:00,63.4,57.4,29.81,West,270,0.0,0.0,81,0.00,,,0.00,WUHU216HW,2013-07-25 03:50:00,
2013-07-24 23:55:00,63.2,57.3,29.81,West,270,0.0,0.0,81,0.00,,,0.00,WUHU216HW,2013-07-25 03:55:00,